Location: Newark
(34.9500°N, 139.9667°E)
Time: 13:28:31
(UTC+00:00)

Vanguard 2 Rocket - Pass Details

Date: 17 December 2019
Orbit: 554 x 3326 km, 32.9° (Epoch: 19 January)

Event Time Altitude Azimuth Distance (km) Brightness Sun altitude
Rises 02:28:38 0° 192° (SSW) 6,879 12.4 31.7°
Reaches altitude 10° 02:35:08 10° 177° (S) 6,129 12.7 31.7°
Maximum altitude 02:47:47 21° 137° (SE) 5,376 11.7 31.6°
Drops below altitude 10° 02:59:49 10° 98° (E) 5,897 11.1 31.4°
Sets 03:05:41 0° 84° (E) 6,569 11.2 31.3°
